{"data":{"norad_id":68594,"intl_designator":"2026-072X","name":"KUIPER-00294","alt_names":[],"object_type":"PAYLOAD","status":"ACTIVE","operator":null,"country":"US","launch_date":"2026-04-04","launch_site_code":"AFETR","launch_vehicle":null,"mission":null,"orbit_class":"UNKNOWN","rcs_meters":null,"size_class":null,"mass_kg":null,"dimensions":null,"purposes":[],"wikipedia_slug":null,"has_3d_model":false,"image_url":null,"decayed_at":null,"tle_current":{"epoch":"2026-05-25T02:27:47.047104Z","epoch_age_seconds":60146,"freshness":"FRESH","line1":"1 68594U 26072X   26145.10262786  .00022318  00000+0  62397-3 0  9994","line2":"2 68594  51.8693 288.9240 0010521 302.6773  57.3198 15.36547106  7824","mean_motion":15.36547106,"eccentricity":0.0010521,"inclination_deg":51.8693,"raan_deg":288.924,"arg_perigee_deg":302.6773,"mean_anomaly_deg":57.3198,"bstar":0.00062397,"rev_number":782,"period_min":93.716619189676,"perigee_km":449.13847935508,"apogee_km":463.51956275658,"semimajor_km":6834.4660210558,"source":"CELESTRAK","updated_at":"2026-05-25T13:38:07.953405Z"}}}